map of MSZ home
Great Circle Mapper logo
MSZ - Airport
Location
City:  Namibe, Angola
ICAO / IATA:FNMO / MSZ

Details
Type:Airport (Aerodrome, Airfield)
Latitude:1515'40"S (-15.261221)
Longitude:1208'48"E (12.146756)
Datum:other
Elevation:210 ft (64 m)
Variation:7.54W (WMM2015 magnetic declination)
0.19 annual change
Runways:1
Longest:8202 × 148 ft (2500 × 45 m), paved

Time
Time Zone:UTC+1
Local Time:

Weather
METAR:FNMO 061400Z 30016KT 9999 SCT012 29/23 Q1011
TAF:FNMO 052300Z 0600/0612 23005KT //// FEW018
TEMPO 0602/0608 VRB03KT BKN015
BECMG 0608/0610 30005G15KT FEW010 SCT025

Related Locations
Nearby:
Farthest:PHHF: 11830 mi / 19038 km
Tern Island [French Frigate Shoals Airport], HI, US

Find:

   beyond  
but within

Other Information
Maps:
NOTAMs:
Links:
Sources:

  
flag of Angola   

Sectional Chart

Flight Planning
at skyvector.com

Satellite Image

Google Maps Satellite view

 

Copyright © 2004-2016 Karl L. Swartz. All rights reserved.
The Great Circle Mapper name and logo are trademarks of the Great Circle Mapper.
All other trademarks mentioned herein belong to their respective owners.
Please see credits for attibutions and further copyright information.

  Follow gcmap on Facebook Follow gcmap on Twitter Follow gcmap on Google+ GCmap on LinkedIn

hCard Microformat

Geo Microformat